EA7JCM-13 Weather Reports


Display with metric or nautical units.
time (UTC)temp
F
wind
direction
speed
MPH
gust
MPH
rain 1hr
in
rain 24hr
in
rain mn
in
humidity
%
barometer
mb
20260507023003 57 106 0.0 4.0 0.00 0.00 0.00 60 1006.7
20260507022503 57 124 1.0 4.0 0.00 0.00 0.00 60 1006.6
20260507022003 58 146 2.0 4.0 0.00 0.00 0.00 59 1006.7
20260507021503 58 132 1.0 4.0 0.00 0.00 0.00 59 1006.7
20260507021003 58 121 1.0 2.0 0.00 0.00 0.00 58 1006.7
20260507020503 58 136 0.0 4.0 0.00 0.00 0.00 59 1006.6
20260507020004 58 130 0.0 4.0 0.00 0.00 0.00 58 1006.5
20260507015503 58 114 1.0 4.0 0.00 0.00 0.00 58 1006.7
20260507015003 58 134 2.0 4.0 0.00 0.00 0.00 58 1006.8
20260507014503 58 122 1.0 4.0 0.00 0.00 0.00 58 1006.7
20260507014003 58 108 1.0 4.0 0.00 0.00 0.00 58 1006.8
20260507013503 58 126 2.0 4.0 0.00 0.00 0.00 57 1006.6
20260507013004 58 150 2.0 6.0 0.00 0.00 0.00 57 1006.7
20260507012503 58 148 2.0 6.0 0.00 0.00 0.00 58 1006.6
20260507012003 58 124 1.0 4.0 0.00 0.00 0.00 58 1006.9
20260507011504 58 114 2.0 4.0 0.00 0.00 0.00 58 1007.0
20260507011003 58 150 2.0 6.0 0.00 0.00 0.00 57 1006.9
20260507010503 58 156 1.0 6.0 0.00 0.00 0.00 57 1006.9
20260507010004 58 171 2.0 7.0 0.00 0.00 0.00 58 1006.9
20260507005503 58 175 2.0 7.0 0.00 0.00 0.00 58 1006.9
20260507005003 58 149 3.0 7.0 0.00 0.00 0.00 58 1007.0
20260507004504 58 142 2.0 7.0 0.00 0.00 0.00 58 1006.8
20260507004003 58 136 2.0 6.0 0.00 0.00 0.00 58 1006.8
20260507003504 58 129 2.0 7.0 0.00 0.00 0.00 58 1007.1
20260507003003 58 134 2.0 7.0 0.00 0.00 0.00 58 1007.0
20260507002503 58 154 4.0 9.0 0.00 0.00 0.00 57 1007.0
20260507002003 58 163 2.0 9.0 0.00 0.00 0.00 56 1007.2
20260507001503 58 151 2.0 7.0 0.00 0.00 0.00 55 1007.1
20260507001004 58 112 3.0 7.0 0.00 0.00 0.00 54 1007.0
20260507000503 58 136 3.0 8.0 0.00 0.00 0.00 52 1007.1
20260507000004 58 171 2.0 8.0 0.00 0.00 0.00 52 1007.2
20260506235504 58 179 4.0 8.0 0.00 0.00 0.00 52 1007.1
20260506235003 59 177 3.0 8.0 0.00 0.00 0.00 52 1007.1
20260506234504 59 178 3.0 11.0 0.00 0.00 0.00 51 1007.1
20260506234003 59 196 4.0 11.0 0.00 0.00 0.00 50 1007.4
20260506233503 60 193 6.0 11.0 0.00 0.00 0.00 49 1007.3
20260506233003 60 181 4.0 11.0 0.00 0.00 0.00 48 1007.1
20260506232503 60 138 7.0 11.0 0.00 0.00 0.00 46 1007.1
20260506232003 61 102 3.0 4.0 0.00 0.00 0.00 44 1006.8
20260506231504 61 103 4.0 4.0 0.00 0.00 0.00 44 1007.0
20260506231004 61 98 2.0 4.0 0.00 0.00 0.00 44 1006.8
20260506230503 61 94 3.0 4.0 0.00 0.00 0.00 43 1006.7
20260506230004 62 98 4.0 4.0 0.00 0.00 0.00 43 1006.7
20260506225504 62 96 3.0 4.0 0.00 0.00 0.00 42 1006.7
20260506225003 62 94 2.0 4.0 0.00 0.00 0.00 42 1006.8
20260506224503 62 95 4.0 4.0 0.00 0.00 0.00 42 1006.5
20260506224003 62 91 2.0 4.0 0.00 0.00 0.00 42 1006.6
20260506223504 62 93 2.0 4.0 0.00 0.00 0.00 42 1006.7
20260506223003 62 94 2.0 4.0 0.00 0.00 0.00 42 1006.5
20260506222503 63 92 2.0 4.0 0.00 0.00 0.00 41 1006.6
20260506222004 63 95 2.0 4.0 0.00 0.00 0.00 41 1006.7
20260506221504 63 96 2.0 4.0 0.00 0.00 0.00 41 1006.6
20260506221004 63 92 3.0 4.0 0.00 0.00 0.00 41 1006.6
20260506220503 63 94 1.0 4.0 0.00 0.00 0.00 42 1006.5
20260506220007 62 92 2.0 4.0 0.00 0.00 0.00 42 1006.7
20260506215503 62 92 2.0 4.0 0.00 0.00 0.00 41 1006.8
20260506215004 62 102 2.0 4.0 0.00 0.00 0.00 41 1006.6
20260506214504 62 97 2.0 4.0 0.00 0.00 0.00 41 1006.6
20260506214003 62 93 2.0 4.0 0.00 0.00 0.00 41 1006.6
20260506213504 62 96 3.0 4.0 0.00 0.00 0.00 41 1006.7
20260506213004 62 94 4.0 4.0 0.00 0.00 0.00 41 1006.7
20260506212503 62 94 3.0 6.0 0.00 0.00 0.00 42 1006.7
20260506212004 61 94 3.0 6.0 0.00 0.00 0.00 42 1006.7
20260506211503 61 94 3.0 6.0 0.00 0.00 0.00 42 1006.7
20260506211004 62 99 3.0 4.0 0.00 0.00 0.00 42 1006.6
20260506210503 62 102 3.0 4.0 0.00 0.00 0.00 41 1006.7
20260506210004 62 98 3.0 6.0 0.00 0.00 0.00 41 1006.6
20260506205504 62 90 3.0 6.0 0.00 0.00 0.00 41 1006.6
20260506205004 62 91 3.0 6.0 0.00 0.00 0.00 41 1006.5
20260506204503 62 98 3.0 6.0 0.00 0.00 0.00 41 1006.4
20260506204004 62 96 3.0 6.0 0.00 0.00 0.00 41 1006.3
20260506203503 62 98 2.0 4.0 0.00 0.00 0.00 41 1006.3
20260506203003 62 101 2.0 4.0 0.00 0.00 0.00 41 1006.4
20260506202504 62 97 3.0 4.0 0.00 0.00 0.00 40 1006.3
20260506202003 62 100 2.0 4.0 0.00 0.00 0.00 41 1006.1
20260506201503 63 104 2.0 4.0 0.00 0.00 0.00 40 1006.2
20260506201001 63 109 2.0 4.0 0.00 0.00 0.00 40 1006.3
20260506200501 63 105 2.0 4.0 0.00 0.00 0.00 39 1006.1
20260506200002 64 104 3.0 4.0 0.00 0.00 0.00 38 1006.1
20260506195502 64 107 2.0 4.0 0.00 0.00 0.00 37 1005.9
20260506195001 64 114 3.0 4.0 0.00 0.00 0.00 37 1005.9
20260506194501 65 143 2.0 2.0 0.00 0.00 0.00 35 1006.1
20260506194001 65 166 1.0 2.0 0.00 0.00 0.00 33 1005.7
20260506193501 66 184 1.0 4.0 0.00 0.00 0.00 33 1005.8
20260506193001 66 193 1.0 4.0 0.00 0.00 0.00 32 1005.6
20260506192501 66 205 2.0 4.0 0.00 0.00 0.00 32 1005.7
20260506192001 66 218 1.0 4.0 0.00 0.00 0.00 31 1005.9
20260506191501 67 217 2.0 4.0 0.00 0.00 0.00 31 1005.7
20260506191001 67 212 2.0 4.0 0.00 0.00 0.00 30 1005.6
20260506190502 67 223 2.0 4.0 0.00 0.00 0.00 29 1005.6
20260506190002 68 234 2.0 4.0 0.00 0.00 0.00 28 1005.6
20260506185501 68 237 2.0 4.0 0.00 0.00 0.00 27 1005.6
20260506185001 69 235 2.0 4.0 0.00 0.00 0.00 27 1005.6
20260506184502 69 228 3.0 6.0 0.00 0.00 0.00 27 1005.5
20260506184002 69 219 2.0 6.0 0.00 0.00 0.00 28 1005.8
20260506183503 69 214 3.0 6.0 0.00 0.00 0.00 28 1005.5
20260506183002 69 211 4.0 6.0 0.00 0.00 0.00 27 1005.5
20260506182502 69 211 2.0 7.0 0.00 0.00 0.00 28 1005.5
20260506182001 68 209 5.0 7.0 0.00 0.00 0.00 28 1005.6
20260506181502 70 192 2.0 6.0 0.00 0.00 0.00 29 1005.6
20260506181002 69 212 2.0 7.0 0.00 0.00 0.00 29 1005.5
20260506180502 69 234 4.0 7.0 0.00 0.00 0.00 29 1005.5
20260506180002 70 219 2.0 7.0 0.00 0.00 0.00 28 1005.7
20260506175502 69 204 4.0 7.0 0.00 0.00 0.00 27 1005.7
20260506175001 69 218 3.0 7.0 0.00 0.00 0.00 29 1005.7
20260506174502 69 235 4.0 7.0 0.00 0.00 0.00 31 1005.8
20260506174001 69 243 4.0 7.0 0.00 0.00 0.00 32 1005.9
20260506173501 69 238 3.0 9.0 0.00 0.00 0.00 32 1005.8
20260506173002 69 236 2.0 9.0 0.00 0.00 0.00 32 1005.7
20260506172503 69 245 7.0 9.0 0.00 0.00 0.00 31 1005.8
20260506172002 69 235 3.0 7.0 0.00 0.00 0.00 31 1006.0
20260506171502 69 218 4.0 9.0 0.00 0.00 0.00 31 1006.0
20260506171001 68 226 3.0 9.0 0.00 0.00 0.00 32 1005.9
20260506170502 69 230 2.0 8.0 0.00 0.00 0.00 32 1005.8
20260506170002 70 227 5.0 8.0 0.00 0.00 0.00 31 1006.1
20260506165501 71 221 2.0 9.0 0.00 0.00 0.00 31 1006.0
20260506165001 70 225 2.0 9.0 0.00 0.00 0.00 31 1005.9
20260506164502 70 248 4.0 9.0 0.00 0.00 0.00 31 1005.9
20260506164001 71 247 4.0 11.0 0.00 0.00 0.00 30 1005.9
20260506163501 70 253 3.0 11.0 0.00 0.00 0.00 31 1006.1
20260506163002 69 264 5.0 11.0 0.00 0.00 0.00 32 1006.1
20260506162501 69 261 4.0 11.0 0.00 0.00 0.00 32 1006.0
20260506162002 70 251 4.0 8.0 0.00 0.00 0.00 32 1006.0
20260506161501 69 256 4.0 9.0 0.00 0.00 0.00 32 1006.0
20260506161001 70 255 4.0 11.0 0.00 0.00 0.00 31 1006.1
20260506160502 70 242 4.0 11.0 0.00 0.00 0.00 32 1006.0
20260506160001 68 251 5.0 9.0 0.00 0.00 0.00 32 1006.0
20260506155501 69 270 5.0 11.0 0.00 0.00 0.00 32 1006.1
20260506155002 71 258 2.0 11.0 0.00 0.00 0.00 32 1006.1
20260506154501 70 242 4.0 11.0 0.00 0.00 0.00 32 1006.2
20260506154001 72 259 4.0 9.0 0.00 0.00 0.00 31 1006.2
20260506153502 71 263 3.0 9.0 0.00 0.00 0.00 31 1006.1
20260506153001 70 257 2.0 11.0 0.00 0.00 0.00 32 1006.1
20260506152501 69 246 7.0 11.0 0.00 0.00 0.00 32 1006.1
20260506152003 69 223 3.0 9.0 0.00 0.00 0.00 32 1006.2
20260506151502 69 210 6.0 9.0 0.00 0.00 0.00 32 1006.3
20260506151001 69 233 4.0 9.0 0.00 0.00 0.00 32 1006.3
20260506150501 71 260 2.0 8.0 0.00 0.00 0.00 32 1006.3
20260506150002 70 233 3.0 8.0 0.00 0.00 0.00 32 1006.3
20260506145502 70 228 0.0 8.0 0.00 0.00 0.00 31 1006.4
20260506145001 70 237 6.0 8.0 0.00 0.00 0.00 31 1006.6
20260506144501 71 272 3.0 8.0 0.00 0.00 0.00 31 1006.5
20260506144003 71 286 1.0 8.0 0.00 0.00 0.00 31 1006.8
20260506143501 71 258 2.0 11.0 0.00 0.00 0.00 32 1006.7
20260506143001 70 252 4.0 11.0 0.00 0.00 0.00 33 1006.6
20260506142502 69 242 6.0 11.0 0.00 0.00 0.00 33 1007.0
20260506142001 70 237 3.0 7.0 0.00 0.00 0.00 33 1007.0
20260506141502 71 267 2.0 7.0 0.00 0.00 0.00 32 1006.9
20260506141001 72 243 4.0 8.0 0.00 0.00 0.00 31 1007.0
20260506140501 71 230 3.0 9.0 0.00 0.00 0.00 33 1007.1
20260506140002 71 229 4.0 20.0 0.00 0.00 0.00 32 1007.1
20260506135501 71 226 2.0 20.0 0.00 0.00 0.00 34 1007.3
20260506135001 71 277 0.0 6.0 0.00 0.00 0.00 31 1006.9
20260506134501 72 263 1.0 7.0 0.00 0.00 0.00 32 1007.2
20260506134001 71 257 5.0 7.0 0.00 0.00 0.00 31 1007.2
20260506133502 70 252 2.0 9.0 0.00 0.00 0.00 33 1007.1
20260506133001 69 253 4.0 9.0 0.00 0.00 0.00 34 1007.3
20260506132502 69 242 2.0 9.0 0.00 0.00 0.00 33 1007.2
20260506132001 70 251 1.0 8.0 0.00 0.00 0.00 33 1007.3
20260506131502 70 287 2.0 8.0 0.00 0.00 0.00 33 1007.5
20260506131002 70 286 3.0 8.0 0.00 0.00 0.00 34 1007.4
20260506130501 69 269 4.0 8.0 0.00 0.00 0.00 34 1007.5
20260506130001 70 273 3.0 6.0 0.00 0.00 0.00 33 1007.7
20260506125501 69 275 2.0 7.0 0.00 0.00 0.00 34 1007.5
20260506125002 70 266 2.0 7.0 0.00 0.00 0.00 35 1007.5
20260506124502 70 295 2.0 4.0 0.00 0.00 0.00 35 1007.5
20260506124001 70 286 1.0 6.0 0.00 0.00 0.00 35 1007.7
20260506123502 69 260 2.0 7.0 0.00 0.00 0.00 35 1007.6
20260506123001 69 270 2.0 7.0 0.00 0.00 0.00 34 1007.5
20260506122503 69 276 3.0 7.0 0.00 0.00 0.00 35 1007.8
20260506122001 70 268 2.0 7.0 0.00 0.00 0.00 35 1007.8
20260506121502 70 268 3.0 8.0 0.00 0.00 0.00 36 1007.8
20260506121001 69 259 3.0 8.0 0.00 0.00 0.00 35 1007.8
20260506120501 69 270 2.0 6.0 0.00 0.00 0.00 35 1007.9
20260506120002 69 314 3.0 4.0 0.00 0.00 0.00 34 1008.0
20260506115501 69 310 2.0 4.0 0.00 0.00 0.00 37 1007.9
20260506115001 67 281 1.0 4.0 0.00 0.00 0.00 35 1008.0
20260506114502 67 286 2.0 6.0 0.00 0.00 0.00 35 1008.3
20260506114001 68 290 2.0 8.0 0.00 0.00 0.00 34 1008.1
20260506113502 68 313 2.0 8.0 0.00 0.00 0.00 35 1008.2
20260506113002 69 310 4.0 8.0 0.00 0.00 0.00 36 1008.5
20260506112501 69 265 1.0 6.0 0.00 0.00 0.00 36 1008.2
20260506112002 67 255 3.0 6.0 0.00 0.00 0.00 36 1008.3
20260506111502 66 271 2.0 6.0 0.00 0.00 0.00 36 1008.4
20260506111002 67 302 3.0 6.0 0.00 0.00 0.00 37 1008.3
20260506110503 68 274 2.0 6.0 0.00 0.00 0.00 37 1008.4
20260506110002 67 272 1.0 4.0 0.00 0.00 0.00 35 1008.5
20260506105502 68 32 2.0 4.0 0.00 0.00 0.00 35 1008.5
20260506105001 66 65 2.0 4.0 0.00 0.00 0.00 34 1008.6
20260506104501 66 328 2.0 4.0 0.00 0.00 0.00 33 1008.8
20260506104002 67 319 2.0 4.0 0.00 0.00 0.00 38 1008.6
20260506103501 67 339 2.0 4.0 0.00 0.00 0.00 39 1008.7
20260506103002 66 354 2.0 4.0 0.00 0.00 0.00 40 1008.7
20260506102501 66 318 2.0 4.0 0.00 0.00 0.00 42 1008.7
20260506102001 66 291 0.0 7.0 0.00 0.00 0.00 41 1008.3
20260506101502 65 289 2.0 7.0 0.00 0.00 0.00 43 1008.9
20260506101001 66 276 2.0 7.0 0.00 0.00 0.00 43 1008.7
20260506100501 65 279 4.0 7.0 0.00 0.00 0.00 44 1008.8
20260506100003 64 297 2.0 7.0 0.00 0.00 0.00 47 1008.8
20260506095502 64 359 3.0 7.0 0.00 0.00 0.00 47 1008.8
20260506095002 65 29 3.0 7.0 0.00 0.00 0.00 43 1009.1
20260506094502 65 14 3.0 6.0 0.00 0.00 0.00 43 1008.8
20260506094002 65 333 2.0 4.0 0.00 0.00 0.00 43 1008.9
20260506093502 65 300 1.0 4.0 0.00 0.00 0.00 45 1008.9
20260506093002 64 278 1.0 4.0 0.00 0.00 0.00 45 1008.9
20260506092501 64 282 1.0 4.0 0.00 0.00 0.00 47 1009.0
20260506092002 63 304 2.0 4.0 0.00 0.00 0.00 48 1008.9
20260506091502 65 300 1.0 4.0 0.00 0.00 0.00 47 1008.8
20260506091001 65 327 0.0 4.0 0.00 0.00 0.00 47 1008.7
20260506090502 64 340 1.0 4.0 0.00 0.00 0.00 47 1008.7
20260506090002 64 307 1.0 4.0 0.00 0.00 0.00 46 1008.6
20260506085502 64 328 1.0 4.0 0.00 0.00 0.00 46 1008.9
20260506085001 64 13 1.0 4.0 0.00 0.00 0.00 47 1009.0
20260506084502 63 6 0.0 4.0 0.00 0.00 0.00 48 1009.0
20260506084001 62 18 1.0 4.0 0.00 0.00 0.00 48 1009.0
20260506083502 63 28 0.0 4.0 0.00 0.00 0.00 47 1008.9
20260506083003 62 358 2.0 4.0 0.00 0.00 0.00 48 1009.0
20260506082502 62 340 2.0 4.0 0.00 0.00 0.00 49 1008.6
20260506082003 62 3 2.0 4.0 0.00 0.00 0.00 47 1008.8
20260506081501 62 343 2.0 4.0 0.00 0.00 0.00 47 1008.8
20260506081002 61 329 1.0 4.0 0.00 0.00 0.00 49 1009.0
20260506080502 60 354 1.0 4.0 0.00 0.00 0.00 52 1008.8
20260506073502 58 35 1.0 2.0 0.00 0.00 0.00 54 1008.6
20260506073002 59 40 0.0 2.0 0.00 0.00 0.00 52 1008.8
20260506072502 58 33 0.0 2.0 0.00 0.00 0.00 52 1008.9
20260506072001 59 31 2.0 2.0 0.00 0.00 0.00 48 1008.8
20260506071502 60 43 2.0 2.0 0.00 0.00 0.00 47 1009.0
20260506071002 58 45 0.0 2.0 0.00 0.00 0.00 51 1008.9
20260506070502 60 50 0.0 2.0 0.00 0.00 0.00 50 1008.9
20260506062502 52 87 1.0 4.0 0.00 0.00 0.00 65 1008.9
20260506062002 51 87 2.0 4.0 0.00 0.00 0.00 66 1008.8
20260506061503 51 91 2.0 4.0 0.00 0.00 0.00 66 1008.9
20260506061002 50 91 2.0 4.0 0.00 0.00 0.00 66 1008.8
20260506060502 50 86 2.0 4.0 0.00 0.00 0.00 67 1008.8
20260506051002 50 96 2.0 4.0 0.00 0.00 0.00 67 1008.4
20260506050502 49 97 2.0 4.0 0.00 0.00 0.00 67 1008.6
20260506045002 49 89 2.0 4.0 0.00 0.00 0.00 68 1008.6
20260506044502 49 102 2.0 4.0 0.00 0.00 0.00 67 1008.4
20260506044002 49 99 3.0 4.0 0.00 0.00 0.00 67 1008.6
20260506043503 49 89 2.0 4.0 0.00 0.00 0.00 68 1008.6
20260506043002 49 88 2.0 4.0 0.00 0.00 0.00 68 1008.6
20260506042503 49 95 1.0 4.0 0.00 0.00 0.00 68 1008.5
20260506042002 49 98 2.0 4.0 0.00 0.00 0.00 67 1008.7
20260506041502 49 96 2.0 4.0 0.00 0.00 0.00 67 1008.7
20260506041002 50 96 2.0 4.0 0.00 0.00 0.00 67 1008.6
20260506040502 49 96 2.0 4.0 0.00 0.00 0.00 67 1008.7
20260506040003 49 94 2.0 4.0 0.00 0.00 0.00 69 1008.7
20260506035502 49 96 2.0 4.0 0.00 0.00 0.00 69 1008.7
20260506035002 49 95 3.0 4.0 0.00 0.00 0.00 69 1008.9
20260506034503 49 95 3.0 4.0 0.00 0.00 0.00 69 1008.7
20260506034002 49 92 2.0 4.0 0.00 0.00 0.00 68 1008.6
20260506033502 50 96 2.0 4.0 0.00 0.00 0.00 67 1008.5
20260506033002 50 101 2.0 4.0 0.00 0.00 0.00 67 1008.7
20260506032502 50 93 2.0 4.0 0.00 0.00 0.00 67 1008.9
20260506032002 50 90 1.0 2.0 0.00 0.00 0.00 67 1008.8
20260506031502 50 96 2.0 4.0 0.00 0.00 0.00 66 1008.7
20260506031002 51 97 2.0 4.0 0.00 0.00 0.00 65 1008.8
20260506030502 51 94 2.0 4.0 0.00 0.00 0.00 65 1008.7
20260506030003 51 92 2.0 4.0 0.00 0.00 0.00 65 1008.9
20260506025503 50 95 2.0 4.0 0.00 0.00 0.00 66 1008.5
20260506025002 50 95 2.0 4.0 0.00 0.00 0.00 67 1008.8
20260506024502 50 97 2.0 4.0 0.00 0.00 0.00 67 1008.9
20260506024003 50 90 2.0 4.0 0.00 0.00 0.00 66 1008.7
20260506023502 51 91 2.0 4.0 0.00 0.00 0.00 66 1008.8